Regional Weather Roundup
Issued by NWS Grand Forks, ND

Home | Current Version | Previous Version | Graphics & Text | Print | Product List | Glossary On
Versions: 1 2 3 4 5 6 7 8 9 10 11 12 13 14 15 16 17 18 19 20 21 22 23 24 25 26 27 28 29 30 31 32 33 34 35 36 37 38 39 40 41 42 43 44 45 46 47 48 49 50
000
ASUS43 KFGF 010531
RWRFGF
PRAIRIE TO PINES  WEATHER ROUNDUP
NATIONAL WEATHER SERVICE EASTERN NORTH DAKOTA/GRAND FORKS ND
1200 AM CDT WED OCT 01 2014

 **SATELLITE DATA USED TO AUGMENT SKY COVER AT AUTOMATED STATIONS**
 *****  WEATHER ACROSS EASTERN NORTH DAKOTA  *****

CITY           SKY/WX    TMP DP  RH WIND       PRES   REMARKS
GRAND FORKS    CLOUDY    57  49  74 SE28G33   29.54F
GRAND FRKS AFB CLOUDY    57  52  84 SE20G25   29.54F
GRAND FRKS NWS   N/A     55 N/A N/A SE24        N/A
DEVILS LAKE    CLOUDY    57  50  77 SE21G29   29.41F
FARGO          LGT RAIN  61  53  75 SE28G37   29.58F
WAHPETON ARPT  MOCLDY    59  52  77 S18G25    29.64S
$$

 ***** WEATHER ACROSS CENTRAL AND WESTERN NORTH DAKOTA  *****

CITY           SKY/WX    TMP DP  RH WIND       PRES   REMARKS
BISMARCK       CLOUDY    54  52  93 W17       29.45R
MINOT          LGT RAIN  51  50  96 NW8       29.40F
JAMESTOWN      MOCLDY    59  53  80 S22G32    29.46S
MINOT AFB      DRIZZLE   51  51 100 N6        29.40F
GARRISON         N/A     51  50  96 NW9       29.41S
WILLISTON      CLOUDY    51  49  92 W3        29.49F
DICKINSON      CLOUDY    53  51  93 W16       29.51R
HETTINGER      PTCLDY    53  50  89 W14       29.57R
$$

 *****  OTHER AIRPORT OBSERVATIONS IN OUR AREA  *****

CITY           SKY/WX    TMP DP  RH WIND       PRES   REMARKS
WALHALLA       FAIR      55  52  88 SE16G24   29.52F
GRAFTON AIRPOR CLOUDY    57  50  77 SE17G31   29.54F
VALLEY CITY AR CLOUDY    59  59 100 S16G26    29.51S
CANDO          CLOUDY    55  54  94 SE18      29.41F
CAVALIER APRT  CLOUDY    57  48  72 SE14G23   29.53F
GWINNER        CLEAR     64  59  82 S20G28    29.57S
ROLLA          CLOUDY    50  50 100 SE16G22   29.44F
 ***** THE ABOVE OBSERVATIONS ARE NON NWS ARE NOT QUALITY
       CONTROLLED AND MAY MIS-REPORT RAIN FOR SNOW...
$$

  *****  WEATHER ACROSS NORTHERN MINNESOTA  *****

CITY           SKY/WX    TMP DP  RH WIND       PRES   REMARKS
FLAG ISLAND    CLOUDY    54  45  71 SE23      29.71F
WARROAD        CLOUDY    52  46  82 SE17G23   29.70S
ROSEAU         CLOUDY    55  46  71 SE16G24   29.66F
HALLOCK        CLOUDY    57  46  67 SE21G28   29.57F
THF RVR FALLS  CLOUDY    57  46  67 SE15G28   29.64S
BAUDETTE       CLOUDY    50  41  71 SE10G23   29.75F
WASKISH        CLOUDY    52  45  76 SE14G22   29.76F
CROOKSTON      CLOUDY    59  50  72 S28G40    29.59F
STEPHEN NDAWN    N/A     57  50  77 SE15        N/A
GREENBUSH NDAW   N/A     54  46  76 SE14        N/A
$$
  *****  WEATHER ACROSS CENTRAL AND WEST MINNESOTA  *****

CITY           SKY/WX    TMP DP  RH WIND       PRES   REMARKS
FOSSTON        MOCLDY    54  46  76 SE15      29.68S
BEMIDJI        CLOUDY    50  44  80 SE13G18   29.75S
PARK RAPIDS    MOCLDY    51  44  77 SE16      29.75F
ELBOW LAKE     CLOUDY    59  55  85 S22G32    29.69F
WADENA         PTCLDY    50  45  81 SE16      29.75S
DETROIT LAKES  MOCLDY    54  46  76 SE18G25   29.69F
MOORHEAD       NOT AVBL
FERGUS FALLS   CLOUDY    61  52  72 S22G29    29.68S
MORRIS MN      CLEAR     59  55  88 SE16G22   29.70F
STAPLES        MOCLDY    52  45  76 SE10G18   29.77F
$$
  *****  WEATHER ELSEWHERE ACROSS MINNESOTA  *****

CITY           SKY/WX    TMP DP  RH WIND       PRES   REMARKS
DULUTH         CLOUDY    47  45  93 SE12G20   29.94R
INTRNTL FALLS  CLOUDY    45  40  82 SE14G20   29.85F
ELY            CLOUDY    43  39  87 SE6       29.91S
CLOQUET        MOCLDY    46  43  87 E8        29.91F
WHEATON        PTCLDY    57  55  94 SE16G22   29.67S
BRAINERD       CLOUDY    50  44  80 SE7       29.82F
HIBBING        CLOUDY    47  42  83 SE9       29.91S
ALEXANDRIA     CLEAR     52  48  86 SE15      29.76S
SAINT CLOUD    CLOUDY    55  46  71 SE12      29.82F
MINNEAPOLIS    CLOUDY    52  45  77 SE13      29.88R
$$

  *****  WEATHER ACROSS SOUTH DAKOTA  *****

CITY           SKY/WX    TMP DP  RH WIND       PRES   REMARKS
SIOUX FALLS    CLOUDY    62  59  90 S12       29.76S
BROOKINGS      NOT AVBL
WATERTOWN      PTCLDY    61  59  93 S16       29.69R
HURON          CLEAR     62  59  90 S9        29.67S
SISSETON         N/A     63  60  90 S17G23    29.63S
ABERDEEN       PTCLDY    62  52  69 S14       29.60R
MITCHELL       MOCLDY    63  61  93 S10       29.70S
PIERRE         PTCLDY    56  49  77 SW8       29.65R
MOBRIDGE       MOCLDY    59  53  80 SW9       29.55R
RAPID CITY     MOCLDY    53  44  71 W5        29.70S
$$

  *****  SOME WEATHER IN NEARBY STATES *****

CITY           SKY/WX    TMP DP  RH WIND       PRES   REMARKS
GLASGOW MT     CLOUDY    54  49  83 NW13      29.61R
GREAT FALLS MT LGT RAIN  45  41  87 NW13      29.90R
CHEYENNE WY    CLOUDY    51  38  60 SW9       29.89F
SCOTTSBLUFF NE CLOUDY    59  44  57 W12       29.79S
OMAHA NE       TSTM      66  63  90 SE21G30   29.76F FOG
DES MOINES IA  CLOUDY    65  56  72 E9        29.84S
DAVENPORT IA   NOT AVBL
CHICAGO IL     CLOUDY    55  47  74 E8        30.01F
EAU CLAIRE WI  CLOUDY    47  41  80 SE14      29.96F
LA CROSSE WI   CLOUDY    49  43  80 SE10      29.97F
$$

  *****  SOME NATIONAL WEATHER *****

CITY           SKY/WX    TMP DP  RH WIND       PRES   REMARKS
LA GUARDIA NY  CLOUDY    62  59  90 NE13      29.98S
RALEIGH NC     PTCLDY    60  58  92 CALM      29.94S
ATLANTA GA     MOCLDY    68  64  87 SW5       29.94S
NEW ORLEANS LA PTCLDY    77  72  84 SE6       29.88S
OKLAHOMA CITY  PTCLDY    74  65  73 SE15G23   29.76S
ALBUQUERQUE NM CLEAR     62  33  33 N5        29.96S
SALT LAKE CITY PTCLDY    52  48  86 CALM      29.94S
LOS ANGELES CA CLEAR     68  61  78 W5        29.77S
BOISE ID       CLOUDY    53  37  54 NW9       30.02R
SEATTLE WA     CLOUDY    59  48  67 NE8       30.17R
$$

*** WEATHER ACROSS MANITOBA...SASKATCHEWAN AND ONTARIO ***
                ***ONTARIO***

CITY           SKY/WX    TMP DP  RH WIND       PRES   REMARKS
GERALDTON      CLEAR     34  34 100 CALM      30.05F FOG
THUNDER BAY    PTCLDY    32  32 100 NE3       30.03F
SIOUX LOOKOUT  CLEAR     46  41  81 S12G21    29.88F
TORONTO        DRIZZLE   61  57  88 E12       30.02S
BIG TROUT LK   CLEAR     43  39  87 S14       29.87F
PICKLE LAKE    NOT AVBL
DRYDEN         CLEAR     48  41  76 S14G23    29.84F
KENORA         PTCLDY    50  43  76 SE15G24   29.76F
$$
                *** MANITOBA***

CITY           SKY/WX    TMP DP  RH WIND       PRES   REMARKS
BRANDON        LGT RAIN  50  48  93 E13       29.50F
DAUPHIN        CLOUDY    52  50  93 E6        29.54F
ISLAND LAKE    PTCLDY    48  43  81 S10G17    29.74F
PILOT MOUND      N/A     52  48  87 SE18G24     N/A
THE PAS        LGT RAIN  50  50 100 S10       29.58F
THOMPSON       LGT RAIN  52  50  93 S2        29.64S FOG
WINNIPEG       CLOUDY    54  48  82 SE17G24   29.60F
LYNN LAKE      FOG       48  48 100 S5        29.56F VSB 3/8
CHURCHILL      LGT RAIN  43  41  93 S14       29.76S
GILLAM         MOCLDY    46  43  87 SE9       29.72F
$$
                ***SASKATCHEWAN***

CITY           SKY/WX    TMP DP  RH WIND       PRES   REMARKS
ESTEVAN        DRIZZLE   48  48 100 CALM      29.48F FOG
KINDERSLEY     CLOUDY    52  43  71 NW18      29.67
LLOYDMINSTER   MOCLDY    50  43  76 NW16G25   29.68S
PRINCE ALBERT  MOCLDY    52  50  93 N5        29.56S
REGINA         LGT RAIN  50  48  93 SE5       29.51S
YORKTON        CLOUDY    48  48 100 SE8       29.51
N. BATTLEFORD  CLOUDY    52  50  93 NW12      29.64F
LA RONGE       CLOUDY    50  50 100 W3        29.55S
SASKATOON      LGT RAIN  52  50  93 NW10      29.59S
SWIFT CURRENT  LGT RAIN  48  48 100 NW22G28   29.62R FOG
$$
NOTE: THESE ARE AUTOMATED STATIONS WITH LIMITED QUALITY CONTROL
      "FAIR" INDICATES FEW OR NO CLOUDS BELOW 12,000 FEET WITH NO
      SIGNIFICANT WEATHER AND/OR OBSTRUCTIONS TO VISIBILITY.
      SKY/WX - SKY CONDITION AND SIGNIFICANT WEATHER.
      TMP - AIR TEMPERATURE.    DP   - DEWPOINT TEMPERATURE.
      RH  - RELATIVE HUMIDITY.  PRES - PRESSURE.
      HX  - HEAT INDEX.         WCI  - WIND CHILL INDEX.
$


USA.gov is the U.S. government's official web portal to all federal, state and local government web resources and services.